Regional Weather Roundup
Issued by NWS Green Bay, WI

Home | Current Version | Previous Version | Text Only | Print | Product List | Glossary On
Versions: 1 2 3 4 5 6 7 8 9 10 11 12 13 14 15 16 17 18 19 20 21 22 23 24 25 26 27 28 29 30 31 32 33 34 35 36 37 38 39 40 41 42 43 44 45 46 47 48 49 50
000
ASUS43 KGRB 211311
RWRGRB

NORTH-CENTRAL AND NORTHEAST WISCONSIN REGIONAL WEATHER ROUNDUP
NATIONAL WEATHER SERVICE GREEN BAY WI
800 AM CDT SAT OCT 21 2017

WIZ005-009-010>012-018-019-211400-
NORTH CENTRAL WISCONSIN

CITY           SKY/WX    TMP DP  RH WIND       PRES   REMARKS
IRONWOOD       PTCLDY    61  47  59 S15G22    29.76F
MANITOWISH WTR CLEAR     57  47  68 S10G16    29.83F
ARBOR VITAE    CLEAR     59  48  66 S10G16    29.85S
EAGLE RIVER    NOT AVBL
LAND O LAKES   CLEAR     58  45  62 S8        29.88S
RHINELANDER    CLEAR     57  47  69 S10       29.88F
PHILLIPS       CLEAR     58  48  69 S12G20    29.82S
ANTIGO         PTCLDY    52  46  80 S7        29.92S
TOMAHAWK       CLEAR     55  46  71 SE5       29.87S
MERRILL        CLEAR     57  47  70 S5        29.88S
$$

WIZ013-073-211400-
NORTHEAST WISCONSIN

CITY           SKY/WX    TMP DP  RH WIND       PRES   REMARKS
IRON MOUNTAIN  PTCLDY    54  45  71 SE7       29.90F
MARINETTE      MOCLDY    58  50  75 S7        29.96S
OCONTO         PTCLDY    57  50  77 S7        29.95S
$$

WIZ017-030-035>037-045-211400-
CENTRAL WISCONSIN

CITY           SKY/WX    TMP DP  RH WIND       PRES   REMARKS
MEDFORD        CLOUDY    56  48  74 SE9       29.85S
WAUSAU         CLEAR     57  48  72 SE9       29.88S
MOSINEE        MOCLDY    57  48  72 SE12G17   29.91R
MARSHFIELD     MOCLDY    58  49  72 S9        29.87R
WISC RAPIDS    MOCLDY    61  50  67 S8        29.90S
STEVENS POINT  MOCLDY    57  48  70 S8        29.91R
WAUPACA        CLOUDY    59  50  73 SE6       29.93S
SHAWANO        CLEAR     61  49  64 S7        29.93S
CLINTONVILLE   PTCLDY    57  48  72 S7        29.93S
WAUTOMA        CLOUDY    59  50  72 S10       29.94R
$$

WIZ038-039-048-051-211400-
FOX VALLEY

CITY           SKY/WX    TMP DP  RH WIND       PRES   REMARKS
NWS GREEN BAY  PTCLDY    59  50  72 S9        29.96S
APPLETON       MOCLDY    57  46  67 S12       29.93F
OSHKOSH        MOCLDY    59  50  72 S16       29.94S
FOND DU LAC    CLOUDY    62  47  57 S10       29.97R
$$

WIZ022-050-052-211400-
EAST CENTRAL WISCONSIN

CITY           SKY/WX    TMP DP  RH WIND       PRES   REMARKS
EPHRAIM        FAIR      58  52  81 S9G17     29.97S
WASHINGTON ISL FAIR      56  52  88 S13G18    29.97S
STURGEON BAY   CLOUDY    58  52  80 S14       29.97F
MANITOWOC      CLOUDY    56  51  84 SE8       30.00R
SHEBOYGAN      MOCLDY    57  51  80 S9        29.99R
$$

LMZ563-521-522-541>543-211400-
LAKESHORE

STATION/POSITION TIME  TEMP    WIND        PRES    VSBY  WAVE
                       AIR SEA DIR/SP/G                  HT/PER
                 (UTC) (F)     (DEG/KT/KT) (MB)    (MI)  (FT/S)
SHEBOYGAN LKSHOR 1300   56     190/ 19/ 20 1015.6R
KEWAUNEE LKSHORE 1248   52     180/  6/  7 1014.4F
NORTHPORT PIER   1240   58     160/  9/ 15 1015.2R
N MID LAKE BUOY  1250   61 58  180/ 19/ 23 1015.6R         5/ 6
S GREEN BAY BUOY 1300   60 58  170/ 10/ 14 1014.2
MENOMINEE LKSHOR 1248   58     170/  9/ 11 1014.1R
$$




USA.gov is the U.S. government's official web portal to all federal, state and local government web resources and services.